This is the latest recevied weather packets stored in our database for station/object N0SWP-3. If no packets are shown the sender has not sent any weather packets the latest 10 day(s).
| Time | Temp. | Humidity | Pressure | Rain* | Wind** | Luminosity | Snow |
|---|---|---|---|---|---|---|---|
| 1777802583 | 9.44° C | 61% | 1016.6 hPa | 0 mm | - | - | - |
| 1777802403 | 9.44° C | 61% | 1016.6 hPa | 0 mm | - | - | - |
| 1777802043 | 9.44° C | 60% | 1016.6 hPa | 0 mm | - | - | - |
| 1777801324 | 9.44° C | 60% | 1016.8 hPa | 0 mm | - | - | - |
| 1777800423 | 10° C | 59% | 1016.8 hPa | 0 mm | - | - | - |
| 1777797903 | 10° C | 59% | 1017 hPa | 0 mm | - | - | - |
| 1777797678 | 10° C | 59% | 1017.1 hPa | 0 mm | - | - | - |
| 1777796103 | 10° C | 58% | 1017.1 hPa | 0 mm | - | - | - |
| 1777793359 | 10° C | 60% | 1017.3 hPa | 0 mm | - | - | - |
| 1777792324 | 10° C | 60% | 1017.5 hPa | 0 mm | - | - | - |
| 1777791964 | 10° C | 60% | 1017.6 hPa | 0 mm | - | - | - |
| 1777789803 | 7.78° C | 68% | 1018.1 hPa | 0 mm | - | - | - |
| 1777789623 | 7.78° C | 69% | 1018.1 hPa | 0 mm | - | - | - |
| 1777789398 | 7.78° C | 70% | 1018.2 hPa | 0 mm | - | - | - |
| 1777788364 | 7.78° C | 72% | 1018.3 hPa | 0 mm | - | - | - |
| 1777788004 | 7.78° C | 73% | 1018.4 hPa | 0 mm | - | - | - |
| 1777785844 | 7.22° C | 74% | 1018.6 hPa | 0 mm | - | - | - |
| 1777785797 | 7.22° C | 74% | 1018.6 hPa | 0 mm | - | - | - |
| 1777784944 | 7.22° C | 74% | 1018.7 hPa | 0 mm | - | - | - |
| 1777784044 | 7.78° C | 72% | 1018.7 hPa | 0 mm | - | - | - |
| 1777783324 | 7.78° C | 74% | 1018.7 hPa | 0 mm | - | - | - |
| 1777782377 | 7.78° C | 74% | 1018.7 hPa | 0 mm | - | - | - |
| 1777780983 | 8.33° C | 72% | 1019 hPa | 0 mm | - | - | - |
| 1777779678 | 8.89° C | 68% | 1019.2 hPa | 0 mm | - | - | - |
| 1777778464 | 8.89° C | 65% | 1019.3 hPa | 0 mm | - | - | - |
* Rain latest hour (hover to see other rain measurements)
** Current wind speed in m/s (hover to see current wind gust speed)